Location: Montecalvo Irpino
(41.1833°N, 15.0333°E)
Time: 14:04:46
(UTC+00:00)

Daily predictions for brighter satellites

Satellite Brightness Start Highest point End
(mag) Time Altitude Azimuth Time Altitude Azimuth Time Altitude Azimuth
ATLAS 2AS CENTAUR R/B 2.8 18:54:37 10° NW 19:01:43 90° ENE 19:08:18 10° SSE
Meteor 2-10 Rocket 4.3 18:59:49 10° NNW 19:04:41 51° W 19:09:33 10° S
Cosmos 1954 Rocket 4.1 18:59:37 10° NNW 19:04:54 89° WSW 19:10:06 10° SSE
Cosmos 1709 Rocket 4.1 19:00:45 10° N 19:07:02 83° E 19:13:22 10° S
Landsat 7 3.8 19:02:23 10° SSE 19:07:05 78° ENE 19:11:49 10° N
PSLV R/B 4.3 19:03:35 10° NNE 19:07:36 45° E 19:11:37 10° S
CZ-4 R/B 4.3 19:10:53 10° SW 19:13:16 15° W 19:15:38 10° WNW
Meteor 2-5 Rocket 4.0 19:09:58 10° SSW 19:15:28 72° W 19:21:04 10° N
CZ-4B R/B 1.9 19:12:55 10° NE 19:15:31 30° E 19:18:08 10° SSE
NOSS 2-1 (E) 4.4 19:10:35 10° NW 19:15:32 90° WSW 19:22:41 10° SSE
Cosmos 2315 Rocket 4.2 19:10:49 10° S 19:17:08 84° W 19:23:26 10° N
RESURS DK-1 3.1 19:13:18 10° N 19:17:12 38° ENE 19:21:02 10° SE
Cosmos 1544 Rocket 3.6 19:12:53 10° N 19:17:12 62° E 19:21:30 10° SSE
Cosmos 2082 Rocket 3.5 19:15:30 10° SE 19:19:27 20° E 19:23:26 10° NE
Cosmos 1271 Rocket 2.7 19:17:09 10° N 19:21:07 73° E 19:24:59 10° SSE
Cosmos 1455 2.2 19:17:55 10° N 19:21:44 66° E 19:25:31 10° SSE
Meteor 1-24 Rocket 4.0 19:19:10 10° SSW 19:24:28 68° W 19:29:58 10° N
MOS 1 4.3 19:20:08 10° SSE 19:25:49 79° ENE 19:31:33 10° NNW
USA 32 4.0 19:22:22 10° S 19:27:34 79° E 19:32:48 10° N
Cosmos 1025 Rocket 4.4 19:28:05 10° SSW 19:32:08 42° WNW 19:36:15 10° N
GEOS 3 Rocket 3.8 19:28:10 11° SE 19:32:59 63° NE 19:38:03 10° NNW
Lacrosse 5 3.0 19:30:16 10° WNW 19:34:57 37° SW 19:39:36 10° SSE
SPOT 1/Viking Rocket 3.5 19:31:50 10° SSE 19:36:58 81° ENE 19:42:09 10° N
Delta 2 Rocket 3.7 19:35:55 10° WSW 19:38:58 31° S 19:40:58 17° SE
Cosmos 1656 3.7 19:37:57 10° NNW 19:43:28 81° WSW 19:48:40 12° SSE
Tiangong 3.6 19:44:06 10° SW 19:44:58 11° SW 19:45:52 10° SSW
Cosmos 1452 Rocket 3.8 19:40:13 10° SSW 19:45:27 71° WNW 19:50:43 10° NNE
ERS-1 Rocket 4.1 19:42:07 14° ESE 19:45:38 29° ENE 19:49:55 10° N
MetOp-B 4.2 19:42:02 12° SSE 19:47:02 71° ENE 19:52:23 10° N
ATLAS 5 CENTAUR R/B 3.4 19:37:49 10° NW 19:48:10 53° WSW 19:51:22 13° S
Cosmos 1110 Rocket 4.0 19:43:44 10° SSW 19:48:59 79° ESE 19:54:18 10° NNE
X-37B 0.5 19:49:42 10° WNW 19:52:28 65° NNE 19:54:15 20° E
Cosmos 2154 Rocket 4.3 19:49:06 10° N 19:55:08 50° ENE 19:59:44 17° SSE
SL-8 R/B 3.7 19:53:07 10° WNW 19:57:57 90° SSW 20:01:22 19° ESE
Cosmos 2228 3.1 19:55:41 10° N 19:59:52 57° E 20:02:34 21° SSE
Cosmos 1697 Rocket 2.7 19:58:37 10° NNW 20:04:15 71° ENE 20:08:06 21° SE
Cosmos 1980 Rocket 3.1 19:59:30 10° N 20:04:46 37° ENE 20:08:21 18° ESE
SL-16 R/B 4.4 20:04:20 10° NNE 20:06:37 12° NE 20:08:53 10° ENE
ATLAS 5 CENTAUR R/B 2.2 20:09:31 25° ESE 20:09:36 25° ESE 20:12:50 10° ENE
USA 267 4.3 20:06:14 10° ENE 20:11:03 22° ESE 20:12:17 20° SE
Cosmos 2369 4.2 20:07:35 10° NNW 20:13:09 48° ENE 20:16:35 22° SE
Cosmos 2058 Rocket 4.5 20:10:54 10° NNE 20:14:31 24° ENE 20:16:04 20° ESE
Cosmos 1408 3.7 20:14:47 23° E 20:15:01 23° E 20:17:50 10° NE
Resurs 01 Rocket 3.2 20:11:07 10° SSW 20:15:06 32° W 20:19:07 10° NNW
CZ-2C R/B 3.9 20:14:03 10° NNE 20:18:25 47° E 20:20:34 26° SSE
Cosmos 2344 4.5 20:09:41 10° NNW 20:18:47 68° NE 20:28:17 20° SE
Meteor 2-1 Rocket 4.2 20:13:24 10° N 20:18:54 67° E 20:22:19 24° SSE
COSMOS 2406 3.2 20:13:22 10° SSW 20:19:08 88° ESE 20:24:56 10° NNE
Cosmos 1833 Rocket 3.7 20:19:30 10° SW 20:24:55 49° WNW 20:30:22 10° NNE
Cosmos 2184 Rocket 4.2 20:19:49 10° NNW 20:25:58 68° W 20:31:13 15° S
Cosmos 1867 4.0 20:26:28 10° NNW 20:31:50 53° NE 20:34:38 27° ESE
Cosmos 1825 3.8 20:33:23 19° E 20:33:23 19° E 20:35:49 10° NE
USA 245 3.9 20:32:00 23° SSW 20:34:13 48° WSW 20:37:28 10° NNW
Ariane Rocket 4.4 20:31:50 10° SSW 20:36:21 34° W 20:40:58 10° NNW
Cosmos 1606 Rocket 3.5 20:33:31 10° N 20:37:53 83° W 20:39:50 32° S
Cosmos 2322 Rocket 4.3 20:37:36 10° N 20:41:02 16° NE 20:44:27 10° E
ARIANE 5 R/B 2.8 20:44:14 39° SE 20:45:40 59° ENE 20:50:02 10° N
Terra 1.7 20:44:04 35° SSE 20:46:04 84° ENE 20:50:51 10° NNW
SPOT 3 Rocket 4.5 20:44:19 18° SSW 20:47:54 42° W 20:52:51 10° NNW
GP-B 3.7 20:44:07 10° NNE 20:48:17 39° E 20:49:01 36° ESE
SPOT 5 2.9 20:46:57 30° SSW 20:48:54 59° W 20:53:10 10° NNW
Cosmos 2278 4.1 20:49:30 10° NNW 20:55:08 54° ENE 20:57:25 34° ESE
USA 276 4.4 20:53:05 10° NW 20:55:29 21° NNE 20:56:54 16° NE
Cosmos 2341 Rocket 4.0 20:50:12 10° N 20:56:30 71° E 20:59:17 35° SSE
Cosmos 1992 Rocket 4.0 20:57:38 37° S 20:59:35 65° ESE 21:04:47 10° NNE
Cosmos 1726 Rocket 3.8 20:55:29 10° NNW 20:59:46 62° W 21:01:15 38° SSW
Meteor 1-11 4.2 20:58:41 28° S 21:01:49 86° W 21:07:25 10° N
Cosmos 2082 Rocket 2.7 20:57:24 10° SW 21:03:01 58° WNW 21:08:40 10° NNE
Okean 1-7 Rocket 3.8 21:03:33 48° ESE 21:04:06 51° E 21:08:28 10° NNE
Cosmos 1633 4.5 21:05:14 18° ENE 21:05:14 18° ENE 21:06:46 10° NE
Helios 1A Rocket 3.9 21:04:55 29° SW 21:06:19 38° W 21:10:11 10° NNW
Spot 2 Rocket 4.4 21:04:03 24° SSW 21:06:38 43° W 21:11:30 10° NNW
Cosmos 1486 Rocket 4.4 21:03:08 10° N 21:08:15 52° ENE 21:09:45 39° ESE
ASTEX 1 3.4 21:05:22 10° N 21:10:22 71° E 21:11:40 48° SSE
SAR-Lupe-1 4.2 21:09:09 10° NNE 21:12:24 61° ENE 21:12:24 61° ENE
Cosmos 2084 Rocket 4.3 21:09:54 10° NW 21:13:31 34° WSW 21:13:53 33° SW
Cosmos 2360 Rocket 4.2 21:11:45 10° N 21:15:42 19° NE 21:18:47 13° E
Cosmos-2242 4.5 21:14:48 10° NNE 21:18:15 24° ENE 21:18:22 24° ENE
Cosmos 2181 Rocket 3.9 21:17:08 38° S 21:19:43 84° E 21:25:59 10° N
ERS-1 Rocket 4.2 21:22:07 23° SW 21:24:18 33° W 21:28:51 10° NNW
Cosmos 1892 3.6 21:26:26 37° WSW 21:27:10 42° WNW 21:30:47 10° N
Cosmos 1602 Rocket 3.8 21:28:29 51° E 21:28:29 51° E 21:32:32 10° NNE
Spot 4 4.3 21:42:42 44° E 21:43:15 46° ENE 21:47:50 10° N
Nadezhda 3 Rocket 4.2 21:43:20 45° SE 21:44:30 50° E 21:50:25 10° NNE
ALOS 2 3.9 21:44:13 28° ENE 21:44:30 28° ENE 21:48:15 10° N
Cosmos 1503 Rocket 4.0 21:41:27 10° NNW 21:46:44 69° ENE 21:47:32 59° ESE
Cosmos 1980 Rocket 3.3 21:43:41 10° NW 21:48:39 32° WSW 21:50:07 28° SW
Cosmos 1626 Rocket 3.9 21:50:06 52° WSW 21:50:35 55° W 21:54:53 10° N
Cosmos 2219 Rocket 4.4 21:47:55 10° N 21:51:25 16° NE 21:54:54 10° E
SL-16 R/B 2.2 21:46:07 10° NNW 21:51:48 70° ENE 21:52:57 55° ESE
Cosmos 2058 Rocket 4.5 21:48:39 10° NNW 21:52:28 29° W 21:53:20 27° WSW
Cosmos 2058 4.1 21:53:50 33° ENE 21:53:50 33° ENE 21:56:52 10° NNE
ATLAS 5 CENTAUR R/B 3.4 21:50:51 10° WSW 21:53:59 26° NW 21:57:28 10° NNE
USA 267 3.1 21:48:02 10° NE 21:54:36 85° SE 21:59:31 19° SW
H-2A R/B 4.5 21:53:17 10° NNE 21:56:24 36° ENE 21:56:24 36° ENE
SL-4 R/B 3.2 22:04:44 32° NNE 22:04:44 32° NNE 22:06:58 10° NE
Cosmos 1825 Rocket 4.1 22:04:05 48° ENE 22:04:05 48° ENE 22:07:41 10° NNE
SJ 16-02 1.6 21:59:20 10° NNW 22:03:35 61° ENE 22:03:35 61° ENE
Meteor 2-20 4.3 22:03:58 55° S 22:05:25 88° W 22:11:33 10° N
Cosmos 1825 3.9 22:08:00 24° W 22:08:16 25° WNW 22:11:23 10° NNW
Cosmos 2221 4.2 22:11:58 10° NNE 22:15:26 24° ENE 22:15:26 24° ENE
Cosmos 2322 Rocket 2.0 22:20:08 10° NNW 22:25:51 87° WSW 22:26:28 72° SSE
USA 234 4.0 22:22:04 16° ESE 22:27:09 51° NNE 22:33:26 10° NW
Cosmos 1934 Rocket 4.0 22:27:37 10° N 22:33:43 68° E 22:34:46 57° SE
Meteor 2-20 Rocket 4.5 22:33:21 57° SW 22:34:35 73° W 22:40:42 10° N
Cosmos 1763 Rocket 4.3 22:41:35 38° E 22:41:35 38° E 22:46:02 10° NE
Cosmos 2333 Rocket 2.7 22:41:10 10° NNW 22:46:50 54° ENE 22:48:05 45° ESE
ADEOS Rocket 3.5 22:53:13 51° SSW 22:55:08 68° W 23:02:53 10° NNW
Cosmos 1606 4.4 22:51:53 10° NNW 22:54:21 28° WNW 22:54:21 28° WNW
Cosmos 1339 Rocket 4.3 22:54:49 66° S 22:55:47 88° WNW 23:01:57 10° N
Cosmos 1340 Rocket 3.8 22:58:42 42° NW 22:58:42 42° NW 23:01:46 10° N
ISS -1.3 23:00:48 21° NE 23:00:48 21° NE 23:02:09 10° NE
Cosmos 2360 Rocket 2.1 22:54:38 10° NNW 23:00:18 72° WSW 23:00:31 71° SW
Gbstr 26 Del rocket 4.4 22:59:00 23° WNW 23:01:15 39° NNW 23:06:01 10° NE
Cosmos 1535 Rocket 4.4 22:56:24 10° N 23:02:50 87° W 23:03:54 65° S
Meteor 2-3 Rocket 3.8 23:04:49 59° ESE 23:05:09 61° E 23:10:39 10° NNE
Cosmos 1076 Rocket 4.1 23:09:44 52° NE 23:09:44 52° NE 23:13:20 10° NNE
Cosmos 540 Rocket 4.2 23:10:08 41° E 23:10:08 41° E 23:14:39 10° NNE
Cosmos 2333 4.1 23:04:09 10° NNW 23:09:58 84° ENE 23:10:39 70° SE
Cosmos 468 Rocket 4.1 23:10:37 64° E 23:10:37 64° E 23:15:48 10° NNE
SL-27 R/B 4.4 23:13:18 26° N 23:13:18 26° N 23:14:56 10° NNE
BREEZE-M DEB (TANK) 3.8 23:12:24 41° N 23:12:24 41° N 23:17:02 10° ENE
NOSS 3-2 (A) 3.3 23:13:40 58° ESE 23:13:40 58° ESE 23:19:33 10° NE
Cosmos 44 4.2 23:14:09 35° WNW 23:14:52 37° NW 23:19:03 10° NNE
Meteor 2-11 Rocket 4.4 23:10:35 10° NNW 23:16:38 66° W 23:17:23 60° SW
Cosmos 972 Rocket 4.3 23:13:14 10° NNW 23:18:31 60° WSW 23:18:41 59° WSW
ALOS 2 4.2 23:21:37 24° WNW 23:21:37 24° WNW 23:24:28 10° NW
CENTAUR R/B 2.3 23:22:31 62° SE 23:22:55 64° ESE 23:29:34 10° NE
Cosmos 1782 3.7 23:19:14 10° N 23:22:20 44° NE 23:22:20 44° NE
ERS-2 3.7 23:20:33 10° N 23:22:56 30° NW 23:22:56 30° NW
Cosmos 2237 Rocket 4.2 23:22:07 10° N 23:26:31 23° NE 23:30:54 10° ESE
Cosmos 1605 Rocket 3.9 23:20:59 10° N 23:27:23 76° W 23:28:27 62° SSW
Cosmos 2297 Rocket 3.5 23:29:19 25° ESE 23:29:38 26° ESE 23:34:11 10° NE
Cosmos 2151 3.3 23:31:03 63° NNE 23:31:03 63° NNE 23:34:44 10° N
COSMOS 2428 3.0 23:27:33 10° NNW 23:33:14 64° ENE 23:34:37 48° ESE
SL-16 R/B 4.1 23:31:56 10° WNW 23:34:48 16° W 23:34:48 16° W
Cosmos 2219 Rocket 2.0 23:30:25 10° NNW 23:36:07 86° WSW 23:36:40 74° S
SJ 16-02 3.9 23:40:11 10° WNW 23:40:31 11° WNW 23:40:31 11° WNW
SL-4 R/B 4.5 23:40:59 10° NW 23:43:33 18° N 23:46:12 10° NE
Cosmos 2322 3.5 23:39:35 10° NNW 23:45:16 78° WSW 23:45:45 72° SSW
Cosmos 1898 Rocket 3.4 23:41:20 10° NNW 23:46:32 77° ENE 23:47:02 70° ESE
Cosmos 1937 Rocket 3.8 23:46:32 10° NNW 23:51:44 62° ENE 23:52:46 51° ESE
Cosmos 2221 4.1 23:49:20 10° NNW 23:52:14 26° WNW 23:52:14 26° WNW
COSMOS 2455 4.1 23:48:25 10° NNW 23:54:02 38° NE 23:59:27 11° ESE
